DLH433 KORD-EDDF

Flight info

Callsign DLH433
Flight time N/A
Altitude 37000
Route RAYNR DCT BRTMN DCT TAAYZ DCT TVC DCT 49N080W DCT VANSI DCT MCKEE/M082F370 DCT PIDSO DCT 62N050W/M082F390 6230N04000W 62N030W 61N020W DCT BALIX/N0472F390 DCT NINEX DCT TOPPA DCT SOGPO DCT DIXAT DIXAT1A
Aircraft A343/H-SDE2E3FGHIJ4J5M1RWXY/LB1D1

Departure

Time 2026-05-04 22:01
Airport Chicago O'Hare International Airport (KORD)

Arrival

Time N/A
Airport Frankfurt Main Airport (EDDF)
Time Latitude Longitude Altitude Speed Heading
2026-05-04 20:32 41.97774 -87.91148 675 ft 0 kts 103°
2026-05-04 21:46 41.97776 -87.91158 674 ft 4 kts 91°
2026-05-04 21:46 41.97770 -87.91187 672 ft 4 kts 75°
2026-05-04 21:47 41.97763 -87.91223 674 ft 4 kts 75°
2026-05-04 21:47 41.97756 -87.91258 673 ft 4 kts 75°
2026-05-04 21:47 41.97749 -87.91289 670 ft 0 kts 52°
2026-05-04 21:51 41.97750 -87.91288 670 ft 0 kts 52°
2026-05-04 21:51 41.97753 -87.91285 671 ft 1 kts 38°
2026-05-04 21:51 41.97758 -87.91285 672 ft 0 kts 16°
2026-05-04 21:51 41.97764 -87.91287 674 ft 3 kts 352°
2026-05-04 21:52 41.97814 -87.91296 674 ft 12 kts 355°
2026-05-04 21:52 41.97907 -87.91284 674 ft 14 kts 14°
2026-05-04 21:52 41.97991 -87.91231 674 ft 14 kts 28°
2026-05-04 21:52 41.98076 -87.91169 674 ft 14 kts 30°
2026-05-04 21:53 41.98152 -87.91088 674 ft 14 kts 48°
2026-05-04 21:53 41.98214 -87.90981 672 ft 15 kts 60°
2026-05-04 21:53 41.98252 -87.90851 673 ft 15 kts 73°
2026-05-04 21:53 41.98282 -87.90711 672 ft 16 kts 79°
2026-05-04 21:54 41.98290 -87.90558 672 ft 17 kts 89°
2026-05-04 21:54 41.98292 -87.90402 672 ft 19 kts 82°
2026-05-04 21:54 41.98290 -87.90198 673 ft 23 kts 90°
2026-05-04 21:54 41.98291 -87.89989 673 ft 22 kts 89°
2026-05-04 21:55 41.98290 -87.89790 674 ft 21 kts 90°
2026-05-04 21:55 41.98290 -87.89591 673 ft 21 kts 90°
2026-05-04 21:55 41.98291 -87.89415 673 ft 17 kts 90°
2026-05-04 21:55 41.98291 -87.89255 672 ft 17 kts 88°
2026-05-04 21:56 41.98291 -87.89090 671 ft 18 kts 91°
2026-05-04 21:56 41.98288 -87.88969 671 ft 0 kts 93°
2026-05-04 21:57 41.98288 -87.88968 671 ft 1 kts 91°
2026-05-04 21:57 41.98289 -87.88960 671 ft 1 kts 84°
2026-05-04 21:58 41.98294 -87.88948 681 ft 1 kts 58°
2026-05-04 21:58 41.98305 -87.88943 668 ft 3 kts 24°
2026-05-04 21:58 41.98344 -87.88930 668 ft 8 kts
2026-05-04 21:58 41.98378 -87.88940 667 ft 5 kts 322°
2026-05-04 21:59 41.98391 -87.88981 667 ft 4 kts 279°
2026-05-04 21:59 41.98390 -87.88990 668 ft 0 kts 269°
2026-05-04 21:59 41.98390 -87.88991 668 ft 1 kts 269°
2026-05-04 21:59 41.98390 -87.89058 668 ft 21 kts 270°
2026-05-04 22:00 41.98390 -87.89491 672 ft 70 kts 270°
2026-05-04 22:00 41.98390 -87.90346 669 ft 112 kts 270°
2026-05-04 22:00 41.98392 -87.91544 677 ft 145 kts 269°
2026-05-04 22:00 41.98387 -87.92924 1102 ft 143 kts 267°
2026-05-04 22:01 41.98352 -87.94307 1406 ft 156 kts 264°
2026-05-04 22:01 41.98396 -87.95775 1830 ft 163 kts 284°
2026-05-04 22:01 41.99151 -87.97038 2105 ft 190 kts 322°
2026-05-04 22:01 42.00480 -87.97531 2359 ft 213 kts 350°
2026-05-04 22:02 42.02026 -87.97553 2511 ft 232 kts 355°
2026-05-04 22:02 42.03724 -87.97391 2688 ft 257 kts
2026-05-04 22:02 42.05505 -87.96764 3018 ft 271 kts 13°
2026-05-04 22:02 42.07307 -87.95935 3389 ft 283 kts 15°
2026-05-04 22:03 42.09148 -87.94959 4021 ft 284 kts 18°
2026-05-04 22:03 42.10982 -87.93920 4581 ft 287 kts 18°
2026-05-04 22:03 42.12813 -87.92864 5182 ft 288 kts 19°
2026-05-04 22:03 42.14661 -87.91800 5801 ft 288 kts 19°
2026-05-04 22:04 42.16510 -87.90746 6261 ft 292 kts 18°
2026-05-04 22:04 42.18410 -87.89675 6794 ft 294 kts 18°
2026-05-04 22:04 42.20297 -87.88620 7248 ft 298 kts 17°
2026-05-04 22:04 42.22232 -87.87543 7788 ft 299 kts 17°
2026-05-04 22:05 42.24141 -87.86482 8303 ft 301 kts 17°
2026-05-04 22:05 42.26093 -87.85397 8845 ft 302 kts 17°
2026-05-04 22:05 42.28032 -87.84317 9343 ft 305 kts 17°
2026-05-04 22:05 42.30020 -87.83240 9772 ft 306 kts 13°
2026-05-04 22:06 42.32085 -87.82588 10164 ft 306 kts
2026-05-04 22:06 42.34208 -87.82153 10357 ft 316 kts
2026-05-04 22:06 42.36443 -87.81825 10528 ft 328 kts 359°
2026-05-04 22:06 42.38736 -87.81551 10739 ft 339 kts 359°
2026-05-04 22:07 42.41132 -87.81285 10903 ft 350 kts 359°
2026-05-04 22:07 42.43584 -87.81009 11068 ft 361 kts 359°
2026-05-04 22:07 42.46129 -87.80722 11237 ft 369 kts 357°
2026-05-04 22:07 42.48706 -87.80686 11404 ft 376 kts 354°
2026-05-04 22:08 42.51358 -87.80768 11668 ft 380 kts 352°
2026-05-04 22:08 42.53997 -87.80909 12038 ft 382 kts 352°
2026-05-04 22:08 42.56668 -87.81082 12446 ft 383 kts 351°
2026-05-04 22:08 42.59309 -87.81263 12823 ft 384 kts 351°
2026-05-04 22:09 42.61971 -87.81448 13157 ft 388 kts 352°
2026-05-04 22:09 42.64693 -87.81635 13489 ft 390 kts 351°
2026-05-04 22:09 42.67427 -87.81758 13830 ft 394 kts 355°
2026-05-04 22:09 42.70158 -87.81435 14140 ft 402 kts
2026-05-04 22:10 42.72903 -87.80440 14448 ft 412 kts 16°
2026-05-04 22:10 42.75490 -87.78676 14753 ft 421 kts 28°
2026-05-04 22:10 42.77902 -87.76379 15090 ft 426 kts 33°
2026-05-04 22:10 42.80238 -87.73861 15401 ft 429 kts 36°
2026-05-04 22:11 42.82536 -87.71235 15728 ft 432 kts 37°
2026-05-04 22:11 42.84826 -87.68566 16030 ft 435 kts 36°
2026-05-04 22:11 42.87117 -87.65901 16329 ft 437 kts 36°
2026-05-04 22:11 42.89466 -87.63195 16647 ft 440 kts 36°
2026-05-04 22:12 42.91792 -87.60538 16951 ft 442 kts 36°
2026-05-04 22:12 42.94165 -87.57845 17269 ft 445 kts 36°
2026-05-04 22:12 42.96559 -87.55137 17596 ft 447 kts 36°
2026-05-04 22:12 42.98943 -87.52443 17900 ft 450 kts 36°
2026-05-04 22:13 43.01367 -87.49702 18207 ft 452 kts 36°
2026-05-04 22:13 43.03804 -87.46941 18502 ft 454 kts 35°
2026-05-04 22:13 43.06258 -87.44157 18819 ft 456 kts 35°
2026-05-04 22:13 43.08685 -87.41400 19127 ft 458 kts 35°
2026-05-04 22:14 43.11128 -87.38621 19445 ft 460 kts 35°
2026-05-04 22:14 43.13602 -87.35804 19747 ft 462 kts 35°
2026-05-04 22:14 43.16066 -87.32994 20018 ft 464 kts 35°
2026-05-04 22:14 43.18544 -87.30165 20341 ft 466 kts 35°
2026-05-04 22:15 43.21063 -87.27287 20642 ft 469 kts 35°
2026-05-04 22:15 43.23554 -87.24438 20906 ft 472 kts 35°
2026-05-04 22:15 43.26098 -87.21524 21191 ft 474 kts 35°
2026-05-04 22:15 43.28613 -87.18641 21476 ft 476 kts 35°
2026-05-04 22:16 43.31139 -87.15740 21760 ft 478 kts 35°
2026-05-04 22:16 43.33713 -87.12783 22044 ft 480 kts 35°
2026-05-04 22:16 43.36284 -87.09824 22330 ft 482 kts 35°
2026-05-04 22:16 43.38868 -87.06848 22610 ft 484 kts 35°
2026-05-04 22:17 43.41430 -87.03895 22869 ft 488 kts 35°
2026-05-04 22:17 43.44050 -87.00870 23112 ft 490 kts 35°
2026-05-04 22:17 43.46647 -86.97869 23348 ft 492 kts 35°
2026-05-04 22:17 43.49287 -86.94813 23610 ft 493 kts 35°
2026-05-04 22:18 43.51895 -86.91790 23866 ft 495 kts 35°
2026-05-04 22:18 43.54555 -86.88704 24115 ft 496 kts 35°
2026-05-04 22:18 43.57193 -86.85641 24333 ft 497 kts 35°
2026-05-04 22:18 43.59817 -86.82590 24596 ft 499 kts 35°
2026-05-04 22:19 43.62500 -86.79468 24769 ft 503 kts 35°
2026-05-04 22:19 43.65165 -86.76364 25004 ft 504 kts 35°
2026-05-04 22:19 43.67863 -86.73217 25259 ft 505 kts 35°
2026-05-04 22:19 43.70524 -86.70109 25487 ft 506 kts 35°
2026-05-04 22:20 43.73228 -86.66946 25718 ft 508 kts 35°
2026-05-04 22:20 43.75909 -86.63808 25940 ft 509 kts 35°
2026-05-04 22:20 43.78624 -86.60624 26184 ft 511 kts 35°
2026-05-04 22:20 43.81349 -86.57425 26384 ft 513 kts 35°
2026-05-04 22:21 43.84054 -86.54247 26572 ft 514 kts 35°
2026-05-04 22:21 43.86800 -86.51015 26774 ft 516 kts 35°
2026-05-04 22:21 43.89517 -86.47811 26998 ft 517 kts 35°
2026-05-04 22:21 43.92275 -86.44556 27216 ft 519 kts 35°
2026-05-04 22:22 43.95033 -86.41298 27441 ft 520 kts 35°
2026-05-04 22:22 43.97780 -86.38048 27677 ft 521 kts 35°
2026-05-04 22:22 44.00567 -86.34746 27844 ft 524 kts 35°
2026-05-04 22:22 44.03329 -86.31471 28055 ft 525 kts 35°
2026-05-04 22:23 44.06101 -86.28180 28248 ft 527 kts 35°
2026-05-04 22:23 44.08898 -86.24854 28534 ft 527 kts 35°
2026-05-04 22:23 44.11662 -86.21560 28864 ft 526 kts 35°
2026-05-04 22:23 44.14422 -86.18267 29178 ft 525 kts 35°
2026-05-04 22:24 44.17206 -86.14941 29545 ft 524 kts 34°
2026-05-04 22:24 44.19959 -86.11652 29740 ft 525 kts 34°
2026-05-04 22:24 44.22753 -86.08309 29958 ft 525 kts 34°
2026-05-04 22:24 44.25503 -86.05014 30205 ft 525 kts 34°
2026-05-04 22:25 44.28251 -86.01716 30444 ft 524 kts 34°
2026-05-04 22:25 44.31024 -85.98385 30708 ft 524 kts 34°
2026-05-04 22:25 44.33794 -85.95052 30938 ft 523 kts 34°
2026-05-04 22:25 44.36534 -85.91752 31199 ft 523 kts 34°
2026-05-04 22:26 44.39299 -85.88420 31424 ft 524 kts 34°
2026-05-04 22:26 44.42044 -85.85104 31676 ft 523 kts 34°
2026-05-04 22:26 44.44813 -85.81755 31940 ft 522 kts 34°
2026-05-04 22:26 44.47540 -85.78453 32197 ft 522 kts 34°
2026-05-04 22:27 44.50293 -85.75115 32481 ft 521 kts 34°
2026-05-04 22:27 44.53004 -85.71823 32729 ft 521 kts 33°
2026-05-04 22:27 44.55761 -85.68473 33000 ft 520 kts 33°
2026-05-04 22:27 44.58475 -85.65168 33256 ft 520 kts 33°
2026-05-04 22:28 44.61190 -85.61859 33500 ft 519 kts 33°
2026-05-04 22:28 44.63932 -85.58514 33707 ft 518 kts 33°
2026-05-04 22:28 44.66646 -85.55198 33924 ft 517 kts 33°
2026-05-04 22:28 44.69381 -85.51903 34126 ft 515 kts 32°
2026-05-04 22:29 44.72119 -85.48727 34329 ft 513 kts 32°
2026-05-04 22:29 44.74910 -85.45546 34530 ft 512 kts 31°
2026-05-04 22:29 44.77648 -85.42437 34726 ft 512 kts 31°
2026-05-04 22:29 44.80440 -85.39256 34932 ft 512 kts 32°
2026-05-04 22:30 44.83176 -85.36119 35137 ft 511 kts 32°
2026-05-04 22:30 44.85944 -85.32930 35325 ft 511 kts 32°
2026-05-04 22:30 44.88670 -85.29776 35500 ft 511 kts 32°
2026-05-04 22:30 44.91418 -85.26588 35687 ft 510 kts 33°
2026-05-04 22:31 44.94164 -85.23397 35787 ft 511 kts 33°
2026-05-04 22:31 44.96918 -85.20191 35911 ft 512 kts 33°
2026-05-04 22:31 44.99663 -85.16991 36073 ft 511 kts 33°
2026-05-04 22:31 45.02377 -85.13823 36254 ft 511 kts 33°
2026-05-04 22:32 45.05121 -85.10616 36414 ft 511 kts 33°
2026-05-04 22:32 45.10631 -85.04171 36467 ft 514 kts 33°
2026-05-04 22:33 45.15213 -84.98795 36447 ft 513 kts 33°
2026-05-04 22:33 45.20690 -84.92353 36448 ft 514 kts 33°
2026-05-04 22:34 45.26203 -84.85853 36456 ft 514 kts 34°
2026-05-04 22:34 45.31715 -84.79337 36427 ft 514 kts 34°
2026-05-04 22:35 45.37202 -84.72833 36447 ft 515 kts 34°
2026-05-04 22:35 45.42678 -84.66326 36442 ft 515 kts 34°
2026-05-04 22:36 45.48188 -84.59763 36456 ft 515 kts 34°
2026-05-04 22:36 45.53666 -84.53220 36450 ft 516 kts 34°
2026-05-04 22:37 45.59148 -84.46653 36466 ft 515 kts 34°
2026-05-04 22:37 45.64630 -84.40068 36478 ft 515 kts 34°
2026-05-04 22:38 45.70111 -84.33470 36465 ft 515 kts 34°
2026-05-04 22:38 45.75615 -84.26826 36464 ft 515 kts 34°
2026-05-04 22:39 45.81075 -84.20217 36466 ft 515 kts 34°
2026-05-04 22:39 45.86539 -84.13587 36460 ft 516 kts 34°
2026-05-04 22:40 45.92011 -84.06928 36451 ft 517 kts 34°
2026-05-04 22:40 45.97512 -84.00214 36473 ft 516 kts 34°
2026-05-04 22:41 46.02970 -83.93535 36462 ft 516 kts 34°
2026-05-04 22:41 46.08430 -83.86838 36470 ft 518 kts 34°
2026-05-04 22:42 46.13901 -83.80109 36496 ft 518 kts 34°
2026-05-04 22:42 46.19398 -83.73328 36471 ft 518 kts 35°
2026-05-04 22:43 46.24858 -83.66575 36478 ft 518 kts 35°
2026-05-04 22:43 46.30312 -83.59811 36476 ft 518 kts 35°
2026-05-04 22:44 46.35788 -83.53000 36483 ft 517 kts 35°
2026-05-04 22:44 46.41221 -83.46225 36484 ft 516 kts 35°
2026-05-04 22:45 46.46663 -83.39420 36481 ft 515 kts 35°
2026-05-04 22:45 46.54799 -83.29213 36481 ft 515 kts 36°
2026-05-04 22:46 46.60199 -83.22414 36483 ft 516 kts 36°
2026-05-04 22:46 46.65636 -83.15551 36485 ft 516 kts 36°
2026-05-04 22:47 46.71020 -83.08735 36478 ft 516 kts 36°
2026-05-04 22:47 46.76414 -83.01887 36508 ft 515 kts 36°
2026-05-04 22:48 46.81835 -82.94986 36481 ft 514 kts 36°
2026-05-04 22:48 46.87213 -82.88122 36484 ft 514 kts 36°
2026-05-04 22:49 46.92598 -82.81230 36481 ft 514 kts 36°
2026-05-04 22:49 46.97948 -82.74363 36490 ft 515 kts 36°
2026-05-04 22:50 47.03360 -82.67397 36483 ft 515 kts 36°
2026-05-04 22:50 47.08727 -82.60470 36487 ft 516 kts 36°
2026-05-04 22:51 47.14102 -82.53512 36486 ft 515 kts 36°
2026-05-04 22:51 47.19466 -82.46548 36483 ft 515 kts 37°
2026-05-04 22:52 47.24860 -82.39529 36484 ft 516 kts 37°
2026-05-04 22:52 47.30218 -82.32534 36484 ft 516 kts 37°
2026-05-04 22:53 47.35580 -82.25515 36494 ft 516 kts 37°
2026-05-04 22:53 47.40939 -82.18481 36487 ft 517 kts 37°
2026-05-04 22:54 47.46339 -82.11371 36490 ft 518 kts 37°
2026-05-04 22:54 47.51706 -82.04284 36476 ft 518 kts 37°
2026-05-04 22:55 47.57057 -81.97199 36489 ft 517 kts 37°
2026-05-04 22:55 47.62408 -81.90094 36475 ft 517 kts 38°
2026-05-04 22:56 47.67770 -81.82953 36485 ft 517 kts 38°
2026-05-04 22:56 47.73117 -81.75813 36482 ft 517 kts 38°
2026-05-04 22:57 47.78447 -81.68675 36482 ft 517 kts 38°
2026-05-04 22:57 47.83779 -81.61513 36479 ft 517 kts 38°
2026-05-04 22:58 47.89102 -81.54341 36479 ft 517 kts 38°
2026-05-04 22:58 47.94456 -81.47107 36472 ft 516 kts 39°
2026-05-04 22:59 47.99736 -81.39950 36475 ft 513 kts 39°
2026-05-04 22:59 48.05014 -81.32778 36476 ft 513 kts 39°
2026-05-04 23:00 48.10297 -81.25583 36474 ft 517 kts 39°
2026-05-04 23:00 48.15613 -81.18318 36467 ft 519 kts 39°
2026-05-04 23:01 48.20897 -81.11069 36469 ft 512 kts 39°
2026-05-04 23:01 48.26155 -81.03838 36458 ft 511 kts 39°
2026-05-04 23:02 48.31384 -80.96632 36465 ft 511 kts 40°
2026-05-04 23:02 48.36608 -80.89410 36453 ft 511 kts 40°
2026-05-04 23:03 48.41849 -80.82141 36440 ft 511 kts 40°
2026-05-04 23:03 48.47055 -80.74900 36432 ft 511 kts 40°
2026-05-04 23:04 48.52261 -80.67636 36432 ft 511 kts 40°
2026-05-04 23:04 48.57481 -80.60334 36420 ft 511 kts 40°
2026-05-04 23:05 48.62680 -80.53037 36423 ft 511 kts 40°
2026-05-04 23:05 48.67877 -80.45723 36423 ft 511 kts 40°
2026-05-04 23:06 48.73064 -80.38402 36415 ft 511 kts 40°
2026-05-04 23:06 48.78257 -80.31049 36405 ft 512 kts 40°
2026-05-04 23:07 48.83446 -80.23681 36403 ft 512 kts 40°
2026-05-04 23:07 48.88666 -80.16246 36418 ft 512 kts 40°
2026-05-04 23:08 48.93831 -80.08867 36395 ft 511 kts 41°
2026-05-04 23:08 48.99015 -80.01440 36396 ft 511 kts 41°
2026-05-04 23:09 49.04165 -79.93949 36391 ft 511 kts 42°
2026-05-04 23:09 49.09219 -79.86376 36413 ft 511 kts 43°
2026-05-04 23:10 49.14281 -79.78762 36390 ft 510 kts 42°
2026-05-04 23:10 49.19314 -79.71204 36396 ft 511 kts 42°
2026-05-04 23:11 49.24404 -79.63555 36407 ft 512 kts 42°
2026-05-04 23:11 49.29464 -79.55929 36401 ft 511 kts 42°
2026-05-04 23:12 49.34520 -79.48284 36411 ft 510 kts 42°
2026-05-04 23:12 49.39578 -79.40612 36405 ft 509 kts 42°
2026-05-04 23:13 49.44595 -79.32979 36403 ft 510 kts 42°
2026-05-04 23:13 49.49638 -79.25283 36414 ft 509 kts 43°
2026-05-04 23:14 49.54632 -79.17638 36406 ft 506 kts 43°
2026-05-04 23:14 49.59625 -79.09971 36431 ft 504 kts 43°
2026-05-04 23:15 49.64565 -79.02363 36415 ft 504 kts 43°
2026-05-04 23:15 49.69533 -78.94689 36421 ft 503 kts 43°
2026-05-04 23:16 49.74436 -78.87090 36428 ft 501 kts 43°
2026-05-04 23:16 49.79349 -78.79453 36427 ft 500 kts 43°
2026-05-04 23:17 49.84257 -78.71803 36423 ft 500 kts 43°
2026-05-04 23:17 49.89166 -78.64126 36437 ft 500 kts 44°
2026-05-04 23:18 49.94027 -78.56501 36419 ft 498 kts 44°
2026-05-04 23:18 49.98924 -78.48795 36448 ft 501 kts 44°
2026-05-04 23:19 50.03821 -78.41067 36451 ft 502 kts 44°
2026-05-04 23:19 50.08694 -78.33353 36451 ft 502 kts 44°
2026-05-04 23:20 50.13591 -78.25576 36454 ft 502 kts 44°
2026-05-04 23:20 50.18461 -78.17818 36463 ft 502 kts 45°
2026-05-04 23:21 50.23354 -78.10000 36463 ft 502 kts 45°
2026-05-04 23:21 50.28201 -78.02231 36468 ft 501 kts 45°
2026-05-04 23:22 50.33082 -77.94382 36463 ft 501 kts 45°
2026-05-04 23:22 50.37919 -77.86579 36476 ft 501 kts 45°
2026-05-04 23:23 50.42767 -77.78736 36472 ft 500 kts 45°
2026-05-04 23:23 50.46796 -77.72197 36473 ft 500 kts 45°
2026-05-04 23:24 50.51643 -77.64310 36483 ft 500 kts 45°
2026-05-04 23:24 50.56442 -77.56475 36479 ft 500 kts 45°
2026-05-04 23:25 50.61275 -77.48561 36483 ft 500 kts 45°
2026-05-04 23:25 50.66100 -77.40635 36500 ft 500 kts 46°
2026-05-04 23:26 50.70883 -77.32751 36494 ft 500 kts 46°
2026-05-04 23:26 50.75700 -77.24788 36490 ft 500 kts 45°
2026-05-04 23:27 50.80501 -77.16827 36497 ft 501 kts 45°
2026-05-04 23:27 50.85304 -77.08835 36501 ft 501 kts 46°
2026-05-04 23:28 50.90105 -77.00822 36503 ft 500 kts 46°
2026-05-04 23:28 50.94863 -76.92853 36505 ft 500 kts 46°
2026-05-04 23:29 50.99659 -76.84797 36515 ft 500 kts 46°
2026-05-04 23:29 51.04410 -76.76791 36521 ft 500 kts 46°
2026-05-04 23:30 51.09170 -76.68743 36512 ft 499 kts 46°
2026-05-04 23:30 51.13921 -76.60685 36510 ft 498 kts 46°
2026-05-04 23:31 51.18635 -76.52663 36517 ft 496 kts 46°
2026-05-04 23:31 51.23348 -76.44618 36513 ft 495 kts 46°
2026-05-04 23:32 51.28009 -76.36635 36512 ft 494 kts 46°
2026-05-04 23:32 51.32697 -76.28581 36519 ft 493 kts 46°
2026-05-04 23:33 51.37342 -76.20575 36513 ft 492 kts 46°
2026-05-04 23:33 51.42002 -76.12518 36516 ft 492 kts 46°
2026-05-04 23:34 51.46658 -76.04441 36513 ft 492 kts 47°
2026-05-04 23:34 51.51494 -75.96742 36514 ft 492 kts 42°
2026-05-04 23:35 51.56550 -75.89331 36501 ft 492 kts 41°
2026-05-04 23:35 51.61628 -75.81969 36506 ft 490 kts 41°
2026-05-04 23:36 51.66660 -75.74653 36519 ft 490 kts 41°
2026-05-04 23:36 51.71711 -75.67276 36515 ft 489 kts 41°
2026-05-04 23:37 51.76766 -75.59860 36515 ft 489 kts 41°
2026-05-04 23:37 51.81768 -75.52497 36516 ft 489 kts 41°
2026-05-04 23:38 51.86799 -75.45069 36522 ft 489 kts 42°
2026-05-04 23:38 51.91837 -75.37608 36527 ft 490 kts 42°
2026-05-04 23:39 51.96872 -75.30128 36530 ft 491 kts 42°
2026-05-04 23:39 52.01871 -75.22678 36528 ft 491 kts 42°
2026-05-04 23:40 52.06908 -75.15146 36541 ft 491 kts 42°
2026-05-04 23:40 52.11920 -75.07628 36546 ft 489 kts 42°
2026-05-04 23:41 52.16912 -75.00115 36551 ft 488 kts 42°
2026-05-04 23:41 52.21895 -74.92593 36560 ft 488 kts 42°
2026-05-04 23:42 52.26875 -74.85050 36559 ft 488 kts 42°
2026-05-04 23:42 52.31826 -74.77528 36566 ft 488 kts 43°
2026-05-04 23:43 52.36795 -74.69954 36580 ft 487 kts 43°
2026-05-04 23:43 52.41726 -74.62414 36577 ft 487 kts 43°
2026-05-04 23:44 52.46686 -74.54805 36585 ft 488 kts 43°
2026-05-04 23:44 52.51647 -74.47169 36590 ft 488 kts 43°
2026-05-04 23:45 52.56593 -74.39533 36600 ft 488 kts 43°
2026-05-04 23:45 52.61509 -74.31917 36600 ft 488 kts 43°
2026-05-04 23:46 52.66456 -74.24229 36597 ft 488 kts 43°
2026-05-04 23:46 52.71370 -74.16567 36604 ft 488 kts 43°
2026-05-04 23:47 52.76312 -74.08836 36616 ft 488 kts 43°
2026-05-04 23:47 52.81240 -74.01103 36621 ft 488 kts 44°
2026-05-04 23:48 52.86133 -73.93397 36626 ft 487 kts 44°
2026-05-04 23:48 52.91052 -73.85626 36631 ft 488 kts 44°
2026-05-04 23:49 52.95928 -73.77895 36639 ft 487 kts 44°
2026-05-04 23:49 53.00830 -73.70101 36639 ft 487 kts 44°
2026-05-04 23:50 53.05687 -73.62353 36643 ft 487 kts 44°
2026-05-04 23:50 53.10572 -73.54534 36651 ft 486 kts 44°
2026-05-04 23:51 53.15442 -73.46712 36650 ft 486 kts 44°
2026-05-04 23:51 53.20302 -73.38881 36663 ft 485 kts 44°
2026-05-04 23:52 53.25143 -73.31055 36660 ft 485 kts 44°
2026-05-04 23:52 53.29989 -73.23192 36670 ft 485 kts 44°
2026-05-04 23:53 53.34795 -73.15370 36667 ft 484 kts 45°
2026-05-04 23:53 53.39626 -73.07481 36670 ft 484 kts 45°
2026-05-04 23:54 53.44426 -72.99616 36669 ft 484 kts 45°
2026-05-04 23:54 53.49267 -72.91657 36671 ft 484 kts 45°
2026-05-04 23:55 53.54054 -72.83762 36670 ft 484 kts 45°
2026-05-04 23:56 53.61280 -72.71791 36673 ft 485 kts 45°
2026-05-04 23:56 53.66071 -72.63823 36676 ft 485 kts 45°
2026-05-04 23:57 53.70846 -72.55853 36666 ft 484 kts 45°
2026-05-04 23:57 53.75646 -72.47812 36675 ft 484 kts 45°
2026-05-04 23:58 53.80407 -72.39813 36673 ft 484 kts 46°
2026-05-04 23:58 53.85190 -72.31747 36676 ft 484 kts 46°
2026-05-04 23:59 53.89937 -72.23715 36676 ft 484 kts 46°
2026-05-04 23:59 53.94681 -72.15662 36673 ft 484 kts 46°
2026-05-05 00:00 53.99461 -72.07519 36678 ft 484 kts 46°
2026-05-05 00:00 54.04189 -71.99437 36679 ft 484 kts 46°
2026-05-05 00:01 54.08934 -71.91297 36675 ft 484 kts 46°
2026-05-05 00:01 54.13682 -71.83124 36670 ft 484 kts 46°
2026-05-05 00:02 54.18394 -71.74986 36673 ft 484 kts 46°
2026-05-05 00:02 54.23105 -71.66821 36670 ft 484 kts 47°
2026-05-05 00:03 54.27835 -71.58592 36683 ft 483 kts 47°
2026-05-05 00:03 54.32537 -71.50385 36683 ft 483 kts 47°
2026-05-05 00:04 54.37239 -71.42141 36677 ft 483 kts 47°
2026-05-05 00:04 54.41933 -71.33889 36675 ft 482 kts 47°
2026-05-05 00:05 54.46600 -71.25658 36684 ft 482 kts 47°
2026-05-05 00:05 54.51269 -71.17399 36686 ft 482 kts 47°
2026-05-05 00:06 54.55934 -71.09118 36692 ft 482 kts 47°
2026-05-05 00:06 54.60595 -71.00817 36691 ft 482 kts 47°
2026-05-05 00:07 54.65258 -70.92481 36691 ft 482 kts 47°
2026-05-05 00:07 54.69915 -70.84125 36691 ft 482 kts 47°
2026-05-05 00:08 54.74554 -70.75767 36690 ft 482 kts 47°
2026-05-05 00:08 54.79180 -70.67402 36687 ft 482 kts 48°
2026-05-05 00:09 54.83804 -70.59019 36691 ft 480 kts 48°
2026-05-05 00:09 54.88410 -70.50630 36692 ft 480 kts 48°
2026-05-05 00:10 54.93007 -70.42233 36691 ft 480 kts 48°
2026-05-05 00:10 54.97607 -70.33800 36676 ft 480 kts 48°
2026-05-05 00:11 55.02226 -70.25303 36692 ft 480 kts 48°
2026-05-05 00:11 55.06775 -70.16904 36691 ft 480 kts 49°
2026-05-05 00:12 55.11360 -70.08409 36689 ft 480 kts 49°
2026-05-05 00:12 55.15918 -69.99933 36688 ft 480 kts 49°
2026-05-05 00:13 55.20481 -69.91419 36686 ft 480 kts 49°
2026-05-05 00:13 55.24280 -69.84309 36689 ft 480 kts 49°
2026-05-05 00:14 55.28848 -69.75728 36693 ft 480 kts 49°
2026-05-05 00:14 55.33392 -69.67161 36685 ft 479 kts 49°
2026-05-05 00:15 55.37909 -69.58614 36687 ft 479 kts 49°
2026-05-05 00:15 55.42438 -69.50015 36688 ft 478 kts 50°
2026-05-05 00:16 55.46943 -69.41428 36693 ft 478 kts 50°
2026-05-05 00:16 55.51445 -69.32813 36691 ft 478 kts 50°
2026-05-05 00:17 55.55949 -69.24164 36696 ft 478 kts 50°
2026-05-05 00:17 55.60431 -69.15523 36687 ft 478 kts 50°
2026-05-05 00:18 55.64911 -69.06860 36697 ft 477 kts 50°
2026-05-05 00:18 55.69378 -68.98193 36699 ft 477 kts 50°
2026-05-05 00:19 55.73857 -68.89472 36701 ft 476 kts 51°
2026-05-05 00:19 55.78309 -68.80769 36708 ft 476 kts 51°
2026-05-05 00:20 55.82757 -68.72037 36703 ft 476 kts 51°
2026-05-05 00:20 55.87193 -68.63295 36706 ft 475 kts 51°
2026-05-05 00:21 55.91607 -68.54574 36709 ft 473 kts 51°
2026-05-05 00:21 55.96007 -68.45837 36710 ft 473 kts 51°
2026-05-05 00:22 56.00395 -68.37100 36711 ft 473 kts 51°
2026-05-05 00:22 56.04772 -68.28357 36721 ft 472 kts 51°
2026-05-05 00:23 56.09147 -68.19578 36701 ft 472 kts 51°
2026-05-05 00:23 56.13514 -68.10787 36724 ft 472 kts 52°
2026-05-05 00:24 56.17879 -68.01969 36719 ft 472 kts 52°
2026-05-05 00:24 56.22227 -67.93146 36704 ft 472 kts 52°
2026-05-05 00:25 56.26579 -67.84279 36713 ft 473 kts 52°
2026-05-05 00:25 56.30942 -67.75365 36715 ft 474 kts 52°
2026-05-05 00:26 56.35291 -67.66447 36715 ft 474 kts 52°
2026-05-05 00:26 56.39618 -67.57540 36700 ft 474 kts 52°
2026-05-05 00:27 56.43972 -67.48540 36690 ft 475 kts 53°
2026-05-05 00:27 56.48318 -67.39525 36700 ft 475 kts 53°
2026-05-05 00:28 56.52656 -67.30488 36696 ft 475 kts 53°
2026-05-05 00:28 56.56973 -67.21459 36697 ft 475 kts 53°
2026-05-05 00:29 56.61279 -67.12425 36680 ft 475 kts 53°
2026-05-05 00:29 56.65601 -67.03315 36680 ft 474 kts 53°
2026-05-05 00:30 56.69949 -66.94264 36676 ft 475 kts 52°
2026-05-05 00:30 56.74422 -66.85475 36674 ft 476 kts 51°
2026-05-05 00:31 56.78936 -66.76645 36674 ft 476 kts 51°
2026-05-05 00:31 56.83427 -66.67751 36657 ft 475 kts 52°
2026-05-05 00:32 56.87862 -66.58893 36654 ft 473 kts 52°
2026-05-05 00:32 56.92309 -66.49962 36650 ft 472 kts 52°
2026-05-05 00:33 56.96708 -66.41092 36649 ft 471 kts 53°
2026-05-05 00:33 57.01096 -66.32219 36648 ft 465 kts 53°
2026-05-05 00:34 57.05408 -66.23457 36625 ft 464 kts 53°
2026-05-05 00:34 57.09706 -66.14687 36624 ft 462 kts 53°
2026-05-05 00:35 57.14020 -66.05855 36631 ft 462 kts 53°
2026-05-05 00:35 57.18291 -65.97087 36629 ft 462 kts 53°
2026-05-05 00:36 57.22592 -65.88216 36631 ft 462 kts 53°
2026-05-05 00:36 57.26843 -65.79416 36614 ft 462 kts 54°
2026-05-05 00:37 57.31116 -65.70543 36615 ft 463 kts 54°
2026-05-05 00:37 57.35410 -65.61592 36614 ft 463 kts 54°
2026-05-05 00:38 57.39669 -65.52676 36614 ft 463 kts 54°
2026-05-05 00:38 57.43946 -65.43689 36612 ft 463 kts 54°
2026-05-05 00:39 57.48199 -65.34719 36616 ft 464 kts 54°
2026-05-05 00:39 57.52470 -65.25674 36612 ft 465 kts 54°
2026-05-05 00:40 57.56734 -65.16606 36594 ft 465 kts 54°
2026-05-05 00:40 57.60991 -65.07519 36599 ft 468 kts 54°
2026-05-05 00:41 57.65280 -64.98334 36601 ft 468 kts 54°
2026-05-05 00:41 57.69550 -64.89151 36595 ft 469 kts 55°
2026-05-05 00:42 57.73799 -64.79982 36604 ft 469 kts 55°
2026-05-05 00:42 57.78060 -64.70749 36605 ft 469 kts 55°
2026-05-05 00:43 57.82322 -64.61472 36604 ft 469 kts 55°
2026-05-05 00:43 57.86570 -64.52192 36609 ft 469 kts 55°
2026-05-05 00:44 57.90822 -64.42867 36602 ft 469 kts 56°
2026-05-05 00:44 57.95037 -64.33586 36617 ft 469 kts 56°
2026-05-05 00:45 57.99271 -64.24226 36607 ft 469 kts 56°
2026-05-05 00:45 58.03504 -64.14829 36611 ft 469 kts 56°
2026-05-05 00:46 58.07727 -64.05413 36611 ft 469 kts 56°
2026-05-05 00:46 58.11917 -63.96037 36617 ft 469 kts 56°
2026-05-05 00:47 58.16126 -63.86579 36596 ft 469 kts 57°
2026-05-05 00:47 58.20318 -63.77126 36622 ft 469 kts 57°
2026-05-05 00:48 58.24492 -63.67671 36604 ft 469 kts 57°
2026-05-05 00:48 58.28692 -63.58124 36634 ft 468 kts 57°
2026-05-05 00:49 58.32862 -63.48603 36633 ft 469 kts 57°
2026-05-05 00:49 58.37024 -63.39064 36645 ft 469 kts 57°
2026-05-05 00:50 58.41194 -63.29465 36663 ft 470 kts 57°
2026-05-05 00:50 58.45330 -63.19876 36662 ft 469 kts 58°
2026-05-05 00:51 58.49455 -63.10150 36644 ft 469 kts 58°
2026-05-05 00:51 58.53561 -63.00489 36656 ft 470 kts 58°
2026-05-05 00:52 58.57713 -62.90754 36669 ft 471 kts 58°
2026-05-05 00:52 58.61862 -62.81008 36671 ft 471 kts 58°
2026-05-05 00:53 58.65973 -62.71316 36677 ft 470 kts 58°
2026-05-05 00:53 58.70103 -62.61527 36678 ft 470 kts 58°
2026-05-05 00:54 58.74205 -62.51774 36650 ft 470 kts 58°
2026-05-05 00:54 58.78317 -62.41958 36661 ft 469 kts 58°
2026-05-05 00:55 58.82387 -62.32186 36662 ft 468 kts 59°
2026-05-05 00:55 58.86470 -62.22343 36661 ft 468 kts 59°
2026-05-05 00:56 58.90525 -62.12537 36646 ft 468 kts 59°
2026-05-05 00:56 58.94597 -62.02644 36661 ft 470 kts 59°
2026-05-05 00:57 58.98659 -61.92735 36636 ft 470 kts 59°
2026-05-05 00:57 59.02717 -61.82795 36636 ft 470 kts 59°
2026-05-05 00:58 59.06752 -61.72870 36634 ft 470 kts 59°
2026-05-05 00:58 59.10788 -61.62894 36611 ft 470 kts 59°
2026-05-05 00:59 59.14158 -61.54535 36631 ft 472 kts 59°
2026-05-05 00:59 59.18200 -61.44470 36633 ft 472 kts 59°
2026-05-05 01:00 59.22250 -61.34342 36620 ft 472 kts 59°
2026-05-05 01:00 59.26297 -61.24181 36619 ft 472 kts 59°
2026-05-05 01:01 59.30310 -61.14061 36594 ft 472 kts 59°
2026-05-05 01:01 59.34322 -61.03888 36621 ft 473 kts 59°
2026-05-05 01:02 59.38320 -60.93713 36637 ft 472 kts 59°
2026-05-05 01:02 59.42319 -60.83488 36621 ft 472 kts 59°
2026-05-05 01:03 59.46311 -60.73248 36641 ft 472 kts 59°
2026-05-05 01:03 59.50295 -60.62987 36587 ft 472 kts 59°
2026-05-05 01:04 59.54291 -60.52638 36626 ft 473 kts 59°
2026-05-05 01:04 59.60233 -60.37170 36627 ft 473 kts 59°
2026-05-05 01:05 59.64191 -60.26804 36638 ft 473 kts 60°
2026-05-05 01:05 59.68143 -60.16403 36631 ft 473 kts 60°
2026-05-05 01:06 59.72077 -60.06006 36634 ft 473 kts 60°
2026-05-05 01:06 59.76016 -59.95554 36642 ft 473 kts 60°
2026-05-05 01:07 59.79951 -59.85075 36651 ft 473 kts 60°
2026-05-05 01:07 59.83878 -59.74566 36650 ft 473 kts 60°
2026-05-05 01:08 59.87776 -59.64078 36661 ft 473 kts 60°
2026-05-05 01:08 59.91682 -59.53523 36663 ft 472 kts 60°
2026-05-05 01:09 59.95564 -59.42988 36656 ft 472 kts 60°
2026-05-05 01:09 59.99459 -59.32368 36673 ft 472 kts 60°
2026-05-05 01:10 60.03319 -59.21808 36684 ft 472 kts 60°
2026-05-05 01:10 60.07190 -59.11167 36669 ft 472 kts 60°
2026-05-05 01:11 60.11020 -59.00578 36682 ft 472 kts 60°
2026-05-05 01:11 60.14897 -58.89805 36679 ft 475 kts 60°
2026-05-05 01:12 60.18746 -58.79076 36688 ft 475 kts 60°
2026-05-05 01:12 60.22612 -58.68259 36689 ft 475 kts 60°
2026-05-05 01:13 60.26452 -58.57457 36701 ft 475 kts 60°
2026-05-05 01:13 60.30277 -58.46636 36699 ft 475 kts 60°
2026-05-05 01:14 60.34124 -58.35707 36707 ft 477 kts 60°
2026-05-05 01:14 60.37946 -58.24794 36706 ft 477 kts 60°
2026-05-05 01:15 60.41766 -58.13835 36725 ft 477 kts 60°
2026-05-05 01:15 60.45558 -58.02855 36717 ft 475 kts 63°
2026-05-05 01:16 60.48632 -57.91120 36723 ft 468 kts 70°
2026-05-05 01:16 60.51416 -57.79180 36729 ft 472 kts 70°
2026-05-05 01:17 60.54173 -57.67067 36741 ft 472 kts 71°
2026-05-05 01:17 60.56902 -57.55022 36741 ft 472 kts 71°
2026-05-05 01:18 60.59649 -57.42870 36744 ft 472 kts 71°
2026-05-05 01:18 60.62387 -57.30698 36752 ft 472 kts 71°
2026-05-05 01:19 60.65097 -57.18588 36752 ft 471 kts 71°
2026-05-05 01:19 60.67814 -57.06375 36766 ft 471 kts 71°
2026-05-05 01:20 60.70508 -56.94212 36763 ft 471 kts 71°
2026-05-05 01:20 60.73187 -56.82032 36749 ft 471 kts 71°
2026-05-05 01:21 60.75853 -56.69853 36763 ft 469 kts 71°
2026-05-05 01:21 60.78513 -56.57609 36746 ft 469 kts 71°
2026-05-05 01:22 60.81157 -56.45361 36771 ft 472 kts 71°
2026-05-05 01:22 60.83806 -56.33040 36771 ft 473 kts 71°
2026-05-05 01:23 60.86442 -56.20720 36788 ft 473 kts 71°
2026-05-05 01:23 60.89075 -56.08327 36788 ft 473 kts 71°
2026-05-05 01:24 60.91698 -55.95886 36799 ft 473 kts 71°
2026-05-05 01:24 60.94294 -55.83515 36788 ft 473 kts 71°
2026-05-05 01:25 60.96893 -55.71061 36814 ft 476 kts 71°
2026-05-05 01:25 60.99505 -55.58464 36795 ft 476 kts 71°
2026-05-05 01:26 61.02084 -55.45945 36809 ft 476 kts 71°
2026-05-05 01:26 61.04654 -55.33381 36826 ft 476 kts 72°